Regional Weather Roundup
Issued by NWS

Home | Current Version | Previous Version | Text Only | Print | Product List | Glossary On
Versions: 1 2 3 4 5 6 7 8 9 10 11 12 13 14 15 16 17 18 19 20 21 22 23 24 25 26 27
000
ASUS42 KKEY 280110
RWRKEY

FLORIDA REGIONAL WEATHER ROUNDUP FOR THE FLORIDA KEYS
NATIONAL WEATHER SERVICE KEY WEST FLORIDA
900 PM EDT MON MAR 27 2017

...SOUTH FLORIDA AND THE KEYS...

CITY           SKY/WX    TMP DP  RH WIND       PRES   REMARKS
FORT MYERS     CLEAR     75  62  64 NW5       30.00R
SW REGIONAL AP CLEAR     72  60  66 SW3       30.01R
NAPLES         CLEAR     72  63  73 N5        30.00R
MIAMI          PTCLDY    74  58  57 NE8       30.02R
WEST KENDALL   CLEAR     73  59  61 E8        30.01R
HOMESTEAD      CLEAR     72  61  68 NE7       30.00S
MARATHON       CLEAR     77  65  66 E7        29.99R
BOCA CHICA NAS CLEAR     75  63  66 E8        29.99S
KEY WEST INTL  CLEAR     76  64  66 E6        29.99S

...INTERNATIONAL WEATHER...

CITY           SKY/WX    TMP DP  RH WIND       PRES   REMARKS
NASSAU BAHAMAS PTCLDY    77  59  53 NE9       30.03R
CANCUN MEXICO  MOCLDY    77  70  78 E8        29.94R
COZUMEL MEXICO PTCLDY    77  70  78 E7        29.91S

ADJACENT COASTAL WATERS...

STATION/POSITION TIME  SKY/WX   TEMP    WIND        PRES    WAVE
                                AIR SEA DIR/SP/G            HT/PER
                 (UTC)          (F)     (DEG/KT/KT) (MB)    (FT/S)
PULASKI SHOAL LI 0000            74      80/  8/  8 1015.6R
SAND KEY         0050            76     110/ 12/ 14 1016.0R
LONG KEY         0000            76 77   90/ 12/ 13 1015.8R
MOLASSES REEF    0000            75 78   50/ 11/ 12 1016.1R
FOWEY ROCKS      0000            75 76   50/ 12/ 13 1016.7R
Buoy 42097       0100                                 N/A     2/ 4

$$




USA.gov is the U.S. government's official web portal to all federal, state and local government web resources and services.